Location: Boone Canyon
(38.3180°N, 119.2504°W)
Time: 17:37:25
(UTC+00:00)

ERBS - Pass Details

Date: 18 September 2020
Orbit: 413 x 418 km, 57.0° (Epoch: 19 October)

Event Time Altitude Azimuth Distance (km) Brightness Sun altitude
Exits shadow 13:13:00 - 268° (W) 1,627 4.5 -6.5°
Reaches altitude 10° 13:13:25 10° 272° (W) 1,498 4.4 -6.4°
Maximum altitude 13:15:59 20° 323° (NW) 1,025 3.9 -5.9°
Drops below altitude 10° 13:18:35 10° 13° (NNE) 1,505 5.3 -5.4°
Sets 13:21:03 0° 31° (NNE) 2,373 6.6 -4.9°
